Weather History for K20V - March, 2013

Change the Weather History Date:

Saturday, March 2, 2013

  Actual Average (KEGE) Record (KEGE)
Temperature  
Mean Temperature 32 °F -  
Max Temperature 41 °F 46 °F 63 °F (1986)
Min Temperature 23 °F 21 °F -13 °F (2002)
Degree Days  
Heating Degree Days 33    
Moisture  
Dew Point 24 °F    
Average Humidity 67    
Maximum Humidity 93    
Minimum Humidity 49    
Precipitation  
Precipitation 0.00 in - - ()
Sea Level Pressure  
Sea Level Pressure 30.31 in    
Wind  
Wind Speed 3 mph (East)    
Max Wind Speed 7 mph    
Max Gust Speed -    
Averages and records for this station are not official NWS values.
T = Trace of Precipitation, MM = Missing Value Source: NWS Daily Summary

Daily Weather History Graph

Daily Weather History Graph

Search for Another Location

Airport or City:

Trip Planner

Search our weather history database for the weather conditions in past years. The results will help you decide how hot, cold, wet, or windy it might be!

Date:

Astronomy

Mar. 02, 2013 Rise Set
Actual Time 6:36 AM MST 5:58 PM MST
Civil Twilight 6:09 AM MST 6:25 PM MST
Nautical Twilight 5:38 AM MST 6:57 PM MST
Astronomical Twilight 5:06 AM MST 7:28 PM MST
Moon 11:41 PM MST (3/2) 9:06 AM MST (3/2)
Length of Visible Light 12h 16m
Length of Day
11h 21m
Waning Gibbous, 73% of the Moon is Illuminated
Mar 2
Waning Gibbous
Mar 4
Last Quarter
Mar 11
New
Mar 19
First Quarter
Mar 27
Full

Hourly Weather History & Observations

Time (MST) Temp. Windchill Dew Point Humidity Pressure Visibility Wind Dir Wind Speed Gust Speed Precip Events Conditions
11:36 AM 37.4 °F 32.8 °F 23.0 °F 56% 30.45 in - East 5.8 mph - N/A   Clear
11:54 AM 39.2 °F 34.2 °F 23.0 °F 52% 30.43 in - East 6.9 mph - N/A   Scattered Clouds
12:16 PM 39.2 °F 35.9 °F 24.8 °F 56% 30.42 in - East 4.6 mph - N/A   Clear
12:36 PM 41.0 °F 38.0 °F 24.8 °F 53% 30.41 in - East 4.6 mph - N/A   Clear
12:56 PM 41.0 °F 38.0 °F 23.0 °F 49% 30.40 in - East 4.6 mph - N/A   Clear
1:15 PM 39.2 °F 35.9 °F 23.0 °F 52% 30.39 in - East 4.6 mph - N/A   Clear
1:33 PM 39.2 °F 35.9 °F 23.0 °F 52% 30.38 in - ENE 4.6 mph - N/A   Clear
1:56 PM 41.0 °F 39.0 °F 23.0 °F 49% 30.37 in - NE 3.5 mph - N/A   Clear
2:15 PM 41.0 °F - 23.0 °F 49% 30.37 in - Calm Calm - N/A   Clear
2:36 PM 41.0 °F - 23.0 °F 49% 30.36 in - Calm Calm - N/A   Clear
2:56 PM 41.0 °F 39.0 °F 23.0 °F 49% 30.35 in - ESE 3.5 mph - N/A   Clear
3:16 PM 41.0 °F 39.0 °F 24.8 °F 53% 30.35 in - ESE 3.5 mph - N/A   Clear
3:36 PM 37.4 °F 34.9 °F 23.0 °F 56% 30.34 in - East 3.5 mph - N/A   Clear
3:56 PM 37.4 °F 34.9 °F 23.0 °F 56% 30.33 in - ESE 3.5 mph - N/A   Clear
4:16 PM 41.0 °F 39.0 °F 23.0 °F 49% 30.32 in - East 3.5 mph - N/A   Clear
4:33 PM 41.0 °F 39.0 °F 23.0 °F 49% 30.32 in - East 3.5 mph - N/A   Clear
4:55 PM 39.2 °F - 23.0 °F 52% 30.31 in - Calm Calm - N/A   Clear
5:16 PM 37.4 °F - 23.0 °F 56% 30.31 in - Calm Calm - N/A   Clear
5:35 PM 35.6 °F 32.8 °F 23.0 °F 60% 30.31 in - ENE 3.5 mph - N/A   Clear
5:55 PM 35.6 °F - 24.8 °F 65% 30.31 in - Calm Calm - N/A   Clear
6:16 PM 33.8 °F - 26.6 °F 75% 30.31 in - Calm Calm - N/A   Clear
6:36 PM 33.8 °F - 26.6 °F 75% 30.31 in - Calm Calm - N/A   Clear
6:56 PM 33.8 °F - 26.6 °F 75% 30.31 in - Calm Calm - N/A   Clear
7:16 PM 32.0 °F - 26.6 °F 80% 30.30 in - Calm Calm - N/A   Clear
7:32 PM 32.0 °F - 26.6 °F 80% 30.30 in - Calm Calm - N/A   Clear
7:56 PM 32.0 °F - 26.6 °F 80% 30.28 in - Calm Calm - N/A   Clear
8:16 PM 30.2 °F - 24.8 °F 80% 30.28 in - Calm Calm - N/A   Clear
8:36 PM 30.2 °F - 24.8 °F 80% 30.27 in - Calm Calm - N/A   Clear
8:52 PM 30.2 °F - 24.8 °F 80% 30.27 in - Calm Calm - N/A   Clear
9:16 PM 30.2 °F - 26.6 °F 86% 30.27 in - Calm Calm - N/A   Unknown
9:36 PM 30.2 °F - 26.6 °F 86% 30.26 in - Calm Calm - N/A   Unknown
9:56 PM 30.2 °F - 24.8 °F 80% 30.26 in - Calm Calm - N/A   Clear
10:16 PM 30.2 °F - 26.6 °F 86% 30.25 in - Calm Calm - N/A   Unknown
10:36 PM 28.4 °F - 23.0 °F 80% 30.24 in - Calm Calm - N/A   Unknown
10:56 PM 28.4 °F - 23.0 °F 80% 30.22 in - Calm Calm - N/A   Unknown
11:16 PM 23.0 °F - 21.2 °F 93% 30.21 in - Calm Calm - N/A   Unknown
11:36 PM 23.0 °F 17.0 °F 21.2 °F 93% 30.20 in - ENE 4.6 mph - N/A   Unknown
11:56 PM 24.8 °F - 21.2 °F 86% 30.19 in - Calm Calm - N/A   Unknown